COSMOS 1579 COOLANT, 26521

Orbit data source: Space-Track

COSMOS 1579 COOLANT, 26521 is space debris in LEO originally from a launch on Fri, 29 Jun 1984 UTC launched from the Tyuratam Missile And Space Complex (TTMTR). Debris objects in space refer to the collection of defunct objects orbiting the Earth. Examples of debris include non-operational satellites, rocket bodies, and fragments generated from explosions, collisions, or faulty payload assembly.

Loading next visibility...
Identifier
26521, 1984-069N
Orbit
LEO
Country
Flag of CISCIS
Related business
Manufacturer
Unknown
Mission
Spacecraft
Bus & Motor
Unknown
Mass
Unknown
Launch date (UTC)
1984-06-29 (41 years ago)
Launch vehicle
Unknown
Launch site
Tyuratam Missile And Space Complex (TTMTR)
Object type
Payload
Rocket body
Debris
Shape & HBR
Unknown shape, 0.1 m
Radar Cross Section
Small (<0.1 m²)

Expand to show TLE details & history
Last TLE update: 1 month ago

TLE from 1 month ago
0 COSMOS 1579 COOLANT
1 26521U 84069N   25254.58786417  .00000091  00000-0  14182-3 0  9996
2 26521  65.0444 242.9370 0030120 108.9276 251.5058 13.91836797609215
Epoch: 2025-09-11T14:06Z
TLE epoch observation values (Epoch: 2025-09-11T14:06:31.464Z)
Latitude
0.00003°
Longitude
40.45814°
Altitude
931.175 km
Speed
7.383 km/s
True Right ascension
16h 11m 44s
True Declination
0° 00' 00"
Sunlit
Object was in daylight at epoch
Visualization orbit readout
Latitude
Unknown
Longitude
Unknown
Altitude
Unknown
Speed
Unknown
Apparent Right ascension
Unknown
Apparent Declination
Unknown
Sunlit
N/A
Visualization observer readout
Local Sidereal Time
12:26:24
Azimuth
Unknown
Elevation
Unknown
Doppler factor
Unknown
Orbital elements
Apogee altitude
942.784 km
Perigee altitude
898.816 km
Semi-major axis
7,298.937 km
Eccentricity
0.00301
Inclination
65.0444°
RAAN
242.937°
Arg. of periapsis
108.9276°
True anomaly
251.17887°
Mean anomaly
251.5058°
Eccentric anomaly
251.34229°
Mean motion
3.4806 °/min
Orbital period
103.43 mins
BSTAR
0.00014182
Loading maneuver chart data...
Computing Atmospheric mass density...

Documentation

Showing up to 5 results
|